User: anonymous   Login
Location: Unspecified
(0.0000°N, 0.0000°E)
Time: 05:14:13
(UTC+02:00)
Language:

Ariane H10 - Orbit

View from above orbital plane
View from above orbital plane
View from above satellite
View from above satellite

Ground track
Ground track

The orbit data is extracted from the following two-line orbital elements,

1 21815U 91084C   17115.34864248 +.00000119 +00000-0 +32829-3 0  9991
2 21815 004.0073 100.8090 7182242 034.3577 355.9301 02.31738537211106
Epoch (UTC): 25 April 2017 08:22:02
Eccentricity: 0.7182242
inclination: 4.0073°
perigee height: 418 km
apogee height: 35067 km
right ascension of ascending node: 100.8090°
argument of perigee: 34.3577°
revolutions per day: 2.31738537
mean anomaly at epoch: 355.9301°
orbit number at epoch: 21110

The dashed part of the orbit path shows where the satellite is in the earth's shadow,  

DLR